Weather Roundup
Issued by NWS Springfield, MO

Home | Current Version | Previous Version | Text Only | Print | Product List | Glossary On
Versions: 1 2 3 4 5 6 7 8 9 10 11 12 13 14 15 16 17 18 19 20 21 22 23 24 25 26 27 28 29 30 31 32 33 34 35 36 37 38 39 40 41 42 43 44 45 46 47 48 49 50
825
NZUS99 KSGF 171057
HRRSGF

HOURLY WEATHER
NATIONAL WEATHER SERVICE SPRINGFIELD MO
500 AM CST TUE JAN 17 2017

......SGF CWA......

CITY           SKY/WX    TMP DP  RH WIND       PRES   REMARKS
SPRINGFIELD    CLOUDY    40  35  83 W13       30.01S WCI  32
JOPLIN         CLOUDY    38  35  89 MISG      30.06R
WEST PLAINS    CLOUDY    40  37  89 W10       30.01S WCI  33
ROLLA          CLOUDY    40  37  89 W14       29.97R WCI  32

......SURROUNDING SGF CWA......

CITY           SKY/WX    TMP DP  RH WIND       PRES   REMARKS
CHANUTE        CLOUDY    36  34  92 W9        30.06S WCI  29
PARSONS        CLOUDY    37  35  92 W7        30.08R FOG     WCI  32
EMPORIA        CLOUDY    34  34 100 NW9       30.05R FOG     WCI  27
HARRISON AR    CLOUDY    39  35  86 SW7       30.03S WCI  34

......KANSAS AND MISSOURI......

CITY           SKY/WX    TMP DP  RH WIND       PRES   REMARKS
KANSAS CTY INT CLOUDY    34  33  96 W6        30.01R WCI  29
SEDALIA        CLOUDY    38  37  97 W12       30.00R WCI  30
ST JOSEPH      CLOUDY    34  34 100 NW14      30.01S FOG     WCI  25
ST LOUIS       CLOUDY    44  37  76 W10       29.94R
WICHITA        CLOUDY    36  33  89 NW8       30.07F WCI  30
TOPEKA         CLOUDY    35  31  85 W6        30.05R WCI  30
OLATHE         CLOUDY    33  33 100 NW9       30.01R FOG     WCI  25

......TENNESSEE......

CITY           SKY/WX    TMP DP  RH WIND       PRES   REMARKS
MEMPHIS        NOT AVBL
NASHVILLE      CLOUDY    65  59  81 S21       30.01F

......ARKANSAS.......

CITY           SKY/WX    TMP DP  RH WIND       PRES   REMARKS
FAYETTEVILLE   CLOUDY    37  35  92 SW7       30.07R WCI  32
FT SMITH       MOCLDY    36  33  89 W8        30.11S WCI  30
LITTLE ROCK    CLOUDY    49  46  90 NW7       30.08F

......OKLAHOMA.......

CITY           SKY/WX    TMP DP  RH WIND       PRES   REMARKS
TULSA          CLOUDY    40  35  83 NW9       30.11R WCI  34
PONCA CITY     CLOUDY    38  33  82 NW8       30.09F WCI  32
MCALESTER      PTCLDY    33  30  88 CALM      30.13S
OKLAHOMA CITY  CLOUDY    37  33  85 NW8       30.12R WCI  31

......IOWA............

CITY           SKY/WX    TMP DP  RH WIND       PRES   REMARKS
DES MOINES     NOT AVBL
QUAD CITIES    FOG       36  34  92 W9        29.84R VSB 3/4 WCI  29

......ILLINOIS........

CITY           SKY/WX    TMP DP  RH WIND       PRES   REMARKS
QUINCY         NOT AVBL
CHICAGO        DRZL/FOG  38  37  97 NW9       29.73R VSB 3/4 WCI  31




USA.gov is the U.S. government's official web portal to all federal, state and local government web resources and services.